Regional Weather Roundup
Issued by NWS

Home | Current Version | Previous Version | Graphics & Text | Print | Product List | Glossary On
Versions: 1 2 3 4 5 6 7 8 9 10 11 12 13 14 15 16 17 18 19 20 21 22 23 24 25 26 27 28 29 30 31 32 33 34 35 36 37 38 39 40 41 42 43 44 45 46 47 48 49 50
000
ASUS43 KMPX 130810
RWRMN
WEATHER ROUNDUP FOR MINNESOTA
NATIONAL WEATHER SERVICE TWIN CITIES/CHANHASSEN MN
300 AM CDT SUN JUL 13 2014


NOTE: "FAIR" INDICATES FEW OR NO CLOUDS BELOW 12,000 FEET WITH NO
SIGNIFICANT WEATHER AND/OR OBSTRUCTIONS TO VISIBILITY. N/A MEANS
CURRENT SKY AND/OR WEATHER CONDITIONS ARE NOT AVAILABLE.

MNZ060>063-068>070-130900-
   Twin Cities Metro

CITY           SKY/WX    TMP DP  RH WIND       PRES   REMARKS
TWIN CITIES    PTCLDY    67  65  93 SW7       29.89F
ST PAUL        CLEAR     66  63  90 CALM      29.88F
CRYSTAL        CLEAR     68  63  84 W7        29.88S
BLAINE         CLEAR     66  64  94 W6        29.89R
LAKEVILLE      PTCLDY    64  63  94 SW5       29.90F
EDEN PRAIRIE   CLEAR     65  64  97 SW6       29.88F
SOUTH ST PAUL  PTCLDY    67  64  91 SW6       29.89S
LAKE ELMO      FAIR      63  63 100 SW3       29.89F
$$
MNZ001>005-007-008-013>017-022>024-027-028-130900-
   Northwest Minnesota

CITY           SKY/WX    TMP DP  RH WIND       PRES   REMARKS
BEMIDJI        CLEAR     52  51  97 W6        29.93S
HALLOCK        PTCLDY    57  55  94 SW8       29.90F
ROSEAU         PTCLDY    55  50  82 W6        29.90S
WARROAD        PTCLDY    52  48  87 SW9       29.89F
THIEF RVR FALL CLOUDY    55  54  94 W8        29.94S VSB 1/2
CROOKSTON      CLEAR     52  52 100 W6        29.95F FOG
FOSSTON        FOG       48  48 100 CALM      29.95S VSB<1/4
DETROIT LAKES  CLEAR     57  55  94 NW6       29.99S
MOORHEAD       CLEAR     57  57 100 CALM      29.98S
PARK RAPIDS    CLEAR     51  51 100 W6        29.95S
$$
MNZ006-009>011-018-025>026-130900-
   North Central Minnesota

CITY           SKY/WX    TMP DP  RH WIND       PRES   REMARKS
BAUDETTE       CLEAR     50  47  89 SW3       29.89F
FLAG ISLAND    CLEAR     54  46  76 W13       29.84F
INTL FALLS     CLEAR     48  47  96 SW5       29.86F
WASKISH        CLEAR     59  52  77 W7        29.90F
BIG FORK       CLEAR     52  48  87 W2        29.91S
LONGVILLE      CLEAR     54  52  94 CALM      29.93F
GRAND RAPIDS   CLEAR     54  48  82 NW6       29.91F
CRANE LAKE     CLEAR     48  48 100 CALM      29.87F
ORR            CLEAR     52  46  82 CALM      29.86F
COOK           CLEAR     50  50 100 W3        29.88F
$$
MNZ012-019>021-037-130900-
   Northeast Minnesota

CITY           SKY/WX    TMP DP  RH WIND       PRES   REMARKS
DULUTH         PTCLDY    59  52  77 NW13G21   29.87S
ELY            PTCLDY    52  48  87 NW5       29.85S
HIBBING        CLEAR     53  50  89 NW6       29.89S
EVELETH        MOCLDY    54  52  94 NW10      29.89S
DULUTH HARBOR  CLEAR     61  55  82 W12       29.87S
TWO HARBORS    CLEAR     55  50  82 W8        29.83R
SILVER BAY     CLEAR     54  54 100 NW5       29.81S
GRAND MARAIS     N/A     59  50  72 VRB3      29.75S
G MARAIS ARPRT PTCLDY    52  46  82 NW12G18   29.79F
$$
MNZ029>031-032-039>041-046>048-054>057-064-130900-
   West Central Minnesota

CITY           SKY/WX    TMP DP  RH WIND       PRES   REMARKS
FERGUS FALLS   CLEAR     57  54  88 N7        29.98S
WHEATON        PTCLDY    57  54  88 W3        30.00S
MORRIS         CLEAR     57  55  94 NW7       29.96S
ALEXANDRIA     CLEAR     62  54  74 NW10      29.97S
ELBOW LAKE     FAIR      57  55  94 NW7       29.97F
WADENA         PTCLDY    55  54  94 NW3       29.96S
GLENWOOD       CLEAR     57  54  88 CALM      29.95F
APPLETON       CLEAR     61  55  82 NW6       29.96R
BENSON         CLEAR     63  57  82 N5        29.95S
ORTONVILLE     CLEAR     61  54  77 NW6       29.97F
MADISON        CLEAR     66  63  88 N9        29.97R
WILLMAR        FAIR      64  61  88 NW7       29.95S
$$
MNZ033>034-036-042>043-049>051-058-059-130900-
   Central Minnesota

CITY           SKY/WX    TMP DP  RH WIND       PRES   REMARKS
ST CLOUD       CLEAR     63  58  83 N6        29.91S
SAUK CENTRE    FAIR      57  53  84 CALM      29.94F
PAYNESVILLE    CLEAR     59  55  89 CALM      29.94S
AITKIN         PTCLDY    57  52  82 CALM      29.92S
PINE RIVER       N/A     55  52  88 MISG      29.98R
BRAINERD       PTCLDY    64  53  67 NW9       29.94S
STAPLES        PTCLDY    55  52  88 NW5       29.96R
LONG PRAIRIE   FAIR      57  52  82 NW7       29.95S
LITTLE FALLS   CLEAR     59  54  82 CALM      29.94R
LITCHFIELD       N/A     68  66  94 NW7       29.93S
BUFFALO        CLEAR     66  62  86 NW7       29.91S
MAPLE LAKE     CLEAR     66  63  90 NW6       29.92S
$$
MNZ037-044-045-052-053-130900-
   East Central Minnesota

CITY           SKY/WX    TMP DP  RH WIND       PRES   REMARKS
PRINCETON      PTCLDY    63  59  88 CALM      29.91S
MORA           PTCLDY    55  52  88 CALM      29.92S
CAMBRIDGE      PTCLDY    63  54  72 CALM      29.88F
RUSH CITY      MOCLDY    58  55  89 CALM      29.90S
MOOSE LAKE     PTCLDY    55  54  94 CALM      29.88S
HINCKLEY       CLOUDY    61  55  82 W5        29.90S
CLOQUET        PTCLDY    55  52  88 NW10      29.89S
MCGREGOR       PTCLDY    55  54  94 NW7       29.92S
$$
MNZ071>073-080-081-089-090-097-098-130900-
   Southwest Minnesota

CITY           SKY/WX    TMP DP  RH WIND       PRES   REMARKS
MONTEVIDEO     CLEAR     64  63  94 N8        29.96S
GRANITE FALLS  CLEAR     65  62  87 W8        29.96S
CANBY          CLEAR     67  62  84 W7        29.98R
MARSHALL       PTCLDY    70  63  78 W9        29.96R
REDWOOD FALLS  PTCLDY    68  64  87 W10       29.93S
OLIVIA         PTCLDY    68  63  83 W8        29.93R
PIPESTONE      PTCLDY    64  63  94 W3        30.01S
WINDOM         PTCLDY    64  63  94 W5        29.98S
WORTHINGTON    CLEAR     66  63  88 W6        30.01S
JACKSON        CLEAR     63  61  94 W5        29.99F
TRACY          PTCLDY    69  64  84 W6        29.98S
SLAYTON        PTCLDY    66  64  91 CALM      30.01S
$$
MNZ065>067-074>077-082>085-091>093-130900-
   South Central Minnesota

CITY           SKY/WX    TMP DP  RH WIND       PRES   REMARKS
MANKATO        CLEAR     64  61  88 SW8       29.93F
NEW ULM        PTCLDY    64  64 100 W3        29.94R
ST JAMES       PTCLDY    66  63  88 SW6       29.97R
FAIRMONT       CLEAR     66  61  82 W8        29.97S
GLENCOE        CLEAR     67  62  84 W5        29.91S
FARIBAULT      PTCLDY    68  63  83 S6        29.93S
OWATONNA       CLEAR     64  63  94 SW6       29.94S FOG
WASECA         CLEAR     61  57  88 SW5       29.96S FOG
ALBERT LEA     CLEAR     64  64 100 W3        29.96S
$$
MNZ078>079-086>088-094>096-130900-
   Southeast Minnesota

CITY           SKY/WX    TMP DP  RH WIND       PRES   REMARKS
ROCHESTER      CLEAR     63  61  93 W8        29.96S
RED WING       CLEAR     61  59  94 CALM      29.89S FOG
STANTON        PTCLDY    64  62  91 S5        29.90S
DODGE CENTER   PTCLDY    63  63 100 SW6       29.94F FOG
WINONA         CLEAR     63  61  94 CALM      29.91S FOG
AUSTIN         FOG       61  61 100 SW3       29.96S VSB 1/4
PRESTON        CLEAR     64  64  97 W9        29.95S
$$
ABBREVIATIONS USED IN REMARKS
   TC - TEMPERATURES IN CELSIUS
  WCI - WIND CHILL INDEX
   HX - HEAT INDEX
  VSB - VISIBILITY
$$


USA.gov is the U.S. government's official web portal to all federal, state and local government web resources and services.